STARLINK-11154 [DTC] (61059 NORAD) Tracking and Keplerian Element Data

This shows tracking and keplerian element data for the satellite.

Feedback or suggestion? Click here.




ElementValue
Catalog61059
NameSTARLINK-11154 [DTC]
Epoch Orbit481
Epoch Day286.5026168
Epoch Year2024
RAAN321.3505
Inclination53.1584
Eccentricity8.73E-05
Argument of Perigee98.4287
Mean Anonmoly261.683
Mean Motion15.69693513
Decay Rate0.00035785
L11 61059U 24164K 24286.50261680 .00035785 00000+0 29916-3 0 9995
L22 61059 53.1584 321.3505 0000873 98.4287 261.6830 15.69693513 4811



Live tracking and technical data element details for STARLINK-11154 [DTC] (NORAD 61059). STARLINK-11154 [DTC] can be tracked NOW for your location showing map with azimuth and elevation plus other details from your city location.







IsCatalogInMostPopularTable: catalog: 61059, numindb: 24
Update: records affected: 1



GetName: 61059 STARLINK-11154 [DTC]

Hit Count: updated at: Wed, 04 Dec 2024 10:09:56 GMT